Zurück zum Katalog

COSMOS 2082

AktivMilitärLEO
NORAD 20624·PAYLOAD·🇷🇺 Russia

Gestartet May 22, 1990 von Baikonur Cosmodrome

Loading…

Nächste Überflüge (nächste 24 Stunden)

TLE

AktuellSource: Space-Track

Epoche: Sep 14, 2026, 05:27 UTC

1 20624U 90046A   26257.22761739  .00000083  00000-0  67476-4 0  9997
2 20624  71.0423 345.6771 0016950 275.4646  84.4543 14.14851900874292

Verfolge COSMOS 2082 in Echtzeit mit AllMySat

Download on the App Store